364  
ASUS42 KTBW 251510  
RWRFL  
FLORIDA REGIONAL WEATHER ROUNDUP  
NATIONAL WEATHER SERVICE TAMPA BAY RUSKIN FL  
1100 AM EDT SAT OCT 25 2014  
 
NOTE: "FAIR" INDICATES FEW OR NO CLOUDS BELOW 12,000 FEET WITH NO  
SIGNIFICANT WEATHER AND/OR S TO VISIBILITY
.  
 
 
FLZ001>010-012>015-112-114-115-251600-  
PANHANDLE FLORIDA  
 
CITY SKY/WX TMP DP RH WIND PRES REMARKS
 
PENSACOLA SUNNY 67 45 45 N8 30.11R  
PENSACOLA NAS SUNNY 67 51 56 N7 30.11S  
MILTON NAS SUNNY 66 48 52 VRB3 30.12R  
CRESTVIEW SUNNY 68 46 45 N7 30.12R  
DUKE FIELD FAIR 66 44 45 N7 30.10S  
VALPARAISO SUNNY 67 44 42 N8 30.09S  
MARY ESTHER SUNNY 69 40 35 N13 30.09R  
PANAMA CITY FAIR 66 47 50 N6 30.08R  
TYNDALL AFB SUNNY 66 51 58 N6 30.08S  
APALACHICOLA SUNNY 72 52 49 N6 30.06S  
 
STATION/POSITION SKY/WX TEMP WIND PRES WAVE SWELL
 
AIR SEA DIR/SP/G HT/PER HT/PER  
(F) (DEG/KT/KT) (MB) (FT/S) (FT/S)  
30.1N 87.6W 66 77 20/ 12/ 16 1019.5R 2/ 3  
29.2N 88.2W 72 78 20/ 16/ 17 1020.1 3/ 5  
28.8N 86.0W 73 79 360/ 12/ 16 1018.1 3/ 4  
PANAMA CITY BEAC 64 76 40/ 8/ 10 1018.4R  
CAPE SAN BLAS NOT AVBL  
TOWER C 68 10/ 11/ 12 1017.9R  
28.5N 84.5W 73 80 10/ 8/ 12 1017.3R 1/ 3  
 

 
FLZ011-016>038-118-127-128-134-139-239-251600-  
NORTH FLORIDA  
 
CITY SKY/WX TMP DP RH WIND PRES REMARKS
 
MARIANNA SUNNY 65 50 58 NE3 30.08S  
TALLAHASSEE SUNNY 70 48 45 N6 30.06S  
PERRY SUNNY 68 50 52 N3 30.06S  
CROSS CITY N/A 72 54 53 VRB3 30.04S  
LAKE CITY N/A 68 54 60 CALM 30.05R  
GAINESVILLE SUNNY 70 53 54 NW8 30.04R  
MAYPORT NAS SUNNY 71 53 52 N6 30.02S  
JACKSONVILLE SUNNY 69 52 54 N8 30.02F  
JAX NAS MOSUNNY 71 50 47 N8 30.04R  
JAX CRAIG SUNNY 71 52 50 NW9 30.03R  
JAX CECIL SUNNY 68 52 56 N5 30.04R  
FERNANDINA BEA FAIR 73 54 49 NW7 30.01S  
ST AUGUSTINE SUNNY 71 55 56 N14 30.03R  
 
STATION/POSITION SKY/WX TEMP WIND PRES WAVE SWELL
 
AIR SEA DIR/SP/G HT/PER HT/PER  
(F) (DEG/KT/KT) (MB) (FT/S) (FT/S)  
SHELL POINT 58 350/ 2/ 4 N/A  
KEATON BEACH 66 290/ 3/ 4 1017.7S  
CEDAR KEY 66 60/ 2/ 3 1017.3R  
FERNANDINA 67 74 350/ 7/ 8 1016.1F  
30.7N 81.3W 75 N/A 2/11 2/11  
MAYPORT 67 76 340/ 9/ 11 N/A  
31.4N 80.9W 66 75 330/ 14/ 16 1016.4F 2/ 3 2/ 9  
ST AUGUSTINE 69 360/ 15/ 17 1017.1R  
 

 
FLZ040-043>046-052-053-057-058-063-144-251600-  
INTERIOR CENTRAL FLORIDA  
 
CITY SKY/WX TMP DP RH WIND PRES REMARKS
 
OCALA SUNNY 72 50 46 N8 30.04R  
THE VILLAGES N/A 72 50 46 NW8 29.93S  
LEESBURG SUNNY 73 49 42 N9 30.03R  
ORLANDO EXEC SUNNY 74 53 48 N8 30.00S  
ORLANDO INTL SUNNY 75 53 46 NW9 30.00S  
KISSIMMEE SUNNY 73 50 43 N8 30.01R  
WINTER HAVEN SUNNY 73 50 44 N12 30.02R  
LAKELAND SUNNY 72 52 49 N12 30.02R  
BARTOW SUNNY 72 48 43 N8 30.02R  
OKEECHOBEE SUNNY N/A N/A N/A MISG N/A  
 

 
FLZ041-047-054-059-064-141-147-251600-  
EAST CENTRAL FLORIDA  
 
CITY SKY/WX TMP DP RH WIND PRES REMARKS
 
ORMOND BEACH SUNNY 72 57 60 N9 30.01R  
DAYTONA BEACH MOSUNNY 74 57 55 NW9 30.01R  
DELAND SUNNY 72 54 53 N8 30.02R  
NEW SMYRNA BEA SUNNY 73 57 56 N8G17 30.00S  
JFK SPACE CTR SUNNY 76 61 60 N13 29.98R  
TITUSVILLE SUNNY 73 59 60 N12 29.98S  
CAPE CANAVERAL SUNNY 76 62 62 N12 29.96S  
PATRICK AFB SUNNY 74 62 65 NW15 29.97S  
MELBOURNE SUNNY 77 61 57 NW15 29.97S  
VERO BEACH SUNNY 76 61 59 N12 29.96S  
FT PIERCE SUNNY 78 61 55 N6 29.96S  
STUART MOSUNNY 75 63 64 N9 29.96S  
 
STATION/POSITION SKY/WX TEMP WIND PRES WAVE SWELL
 
AIR SEA DIR/SP/G HT/PER HT/PER  
(F) (DEG/KT/KT) (MB) (FT/S) (FT/S)  
28.5N 80.2W 76 80 350/ 12/ 16 1014.3R  
28.9N 78.5W 76 82 360/ 10/ 14 1013.8S 3/ 6 3/ 6  
TRIDENT PIER 74 78 320/ 8/ 13 1014.3S  
28.4N 80.5W 78 N/A 2/11  
27.6N 80.2W 79 N/A 4/10 2/11  
 

 
FLZ050-056-061-142-242-148-248-149-249-151-251-155-255-  
160-260-251600-  
WEST CENTRAL FLORIDA  
 
CITY SKY/WX TMP DP RH WIND PRES REMARKS
 
CRYSTAL RIVER FAIR 72 52 49 N6 30.04R  
INVERNESS FAIR 72 52 49 N7 30.04R  
BROOKSVILLE SUNNY 73 51 46 N9 30.03S  
ZEPHYRHILLS FAIR 72 50 46 NE10 30.03S  
CLEARWATER SUNNY 73 54 51 N7 30.02R  
TAMPA INTL SUNNY 73 49 42 N9 30.03R  
PLANT CITY SUNNY 73 48 40 N7 30.04R  
MACDILL AFB SUNNY 75 55 48 NE8 30.02R  
ST PETERSBURG SUNNY 73 54 51 N10 30.01R  
SARASOTA SUNNY 74 54 49 NE10 30.00R  
VENICE N/A 73 55 53 MISG 30.01S  
 
STATION/POSITION SKY/WX TEMP WIND PRES WAVE SWELL
 
AIR SEA DIR/SP/G HT/PER HT/PER  
(F) (DEG/KT/KT) (MB) (FT/S) (FT/S)  
CEDAR KEY 66 60/ 2/ 3 1017.3R  
28.5N 84.5W 73 80 10/ 8/ 12 1017.3R 1/ 3  
27.3N 84.3W 81 N/A 3/ 5  
CLEARWATER BEACH NOT AVBL  
MIDDLE TAMPA BAY 70 30/ 11/ 13 1016.6S  
VENICE 71 78 10/ 12/ 14 1015.7R  
 

 
FLZ066-069-070-075>078-162-262-165-265-251600-  
SOUTHWEST FLORIDA AND KEYS  
 
CITY SKY/WX TMP DP RH WIND PRES REMARKS
 
PUNTA GORDA SUNNY 75 58 55 N13 30.01S  
FT MYERS SUNNY 74 58 57 NE15 29.98S  
SOUTHWEST INTL SUNNY 73 57 57 N12 29.98S  
NAPLES SUNNY 76 59 55 NE9 29.96S  
MARATHON SUNNY 78 67 68 N12 29.93S  
KEY WEST NAS MOSUNNY 79 65 62 N15 29.95R  
KEY WEST INTL MOSUNNY 78 67 68 N13 29.96R  
 
STATION/POSITION SKY/WX TEMP WIND PRES WAVE SWELL
 
AIR SEA DIR/SP/G HT/PER HT/PER  
(F) (DEG/KT/KT) (MB) (FT/S) (FT/S)  
VENICE 71 78 10/ 12/ 14 1015.7R  
NAPLES 73 80 10/ 6/ 11 1015.3F  
26.0N 85.6W 76 80 10/ 12/ 14 1017.2R 3/ 5 2/12  
DRY TORTUGAS 76 20/ 14/ 18 1014.7R  
NW FL BAY 74 30/ 13/ 15 1013.6S  
SAND KEY 75 10/ 19/ 23 1014.1R  
SOMBRERO KEY 75 30/ 16/ 17 1013.8F  
LONG KEY 73 76 10/ 14/ 16 1014.1R  
MOLASSES REEF 76 82 10/ 17/ 18 1013.0R  
 

 
FLZ067-068-071>074-168-172>174-251600-  
SOUTHEAST FLORIDA  
 
CITY SKY/WX TMP DP RH WIND PRES REMARKS
 
W PALM BEACH MOSUNNY 78 62 57 N10 29.93R  
FT LAUDER-EXEC SUNNY 78 60 53 NW10 29.94R  
FT LAUDERDALE MOSUNNY 81 63 54 N13 29.92S  
POMPANO BEACH MOSUNNY 80 61 52 NW13 29.94R  
PEMBROKE PINES SUNNY 80 61 52 N15 29.94S  
OPA LOCKA SUNNY 80 60 50 N14 29.94R  
MIAMI SUNNY 80 59 48 N13G20 29.93S  
WEST KENDALL SUNNY 81 62 52 N14 29.94R  
HOMESTEAD SUNNY 79 63 58 N15 29.93R  
 
STATION/POSITION SKY/WX TEMP WIND PRES WAVE SWELL
 
AIR SEA DIR/SP/G HT/PER HT/PER  
(F) (DEG/KT/KT) (MB) (FT/S) (FT/S)  
PORT EVERGLADES 78 320/ 8/ 12 1013.4  
VIRGINIA KEY 78 80 350/ 7/ 13 1013.7R  
LAKE WORTH 76 78 340/ 13/ 15 1013.4S  
FOWEY ROCKS 77 81 350/ 16/ 17 1013.4R  
SETTLEMENT POINT 77 20/ 15/ 16 1013.8S  
 

 
 
CLICK HERE TO GO TO PREVIOUS BULLETINS.

The Nexlab FL Page Main Text Page